Weather in Demydivka

Ukraine / Poltava Region     49°15′01″N   33°31′44″E
temp.,
°C
wind,
m/s
gust,
m/s
humid.,
%
clouds,
%
prec.,
mm/h
press.,
hPa
HPBL,
m
18 october, mon
mon1800:00+6nw367812 0.0 1020111
03:00+5nw367943 0.0 1020107
06:00+5nw3577100 0.0 1020101
09:00+7wnw366699 0.0 1020296
12:00+10wnw564999 0.0 10201230
15:00+11wnw5649100 0.0 10191355
18:00+9wnw3757100 0.0 1019200
21:00+9wnw4764100 0.0 1019828
19 october, tue
tue1900:00+9w4971100 0.3 1019704
03:00+8nw5977100 0.4 1019649
06:00+7nw488299 0.1 1020610
09:00+6nnw610745 0.1 1022582
12:00+10nnw79425 0.0 10231461
15:00+10nw79345 0.0 10231781
18:00+7nw49451 0.0 1025242
21:00+5nw38530 0.0 1026171
20 october, wed
wed2000:00+4nw38635 0.0 1027167
03:00+3nw367457 0.0 102798
06:00+3nw347869 0.0 102865
09:00+5nw236760 0.0 1028157
12:00+10sw344955 0.0 1028926
15:00+11ssw3535100 0.0 1026712
18:00+9s453687 0.0 102569
21:00+8s41042100 0.0 1023212
21 october, thu
thu2100:00+9ssw61462100 0.0 1022443
03:00+9ssw61578100 0.0 1021495
06:00+9ssw71584100 0.0 1020510
09:00+10ssw71582100 0.0 1019604
12:00+14sw81361100 0.0 1019813
15:00+17ssw81249100 0.0 10161070
18:00+14ssw7145763 0.0 1015659
21:00+12ssw71566100 0.0 1015589
22 october, fri
fri2200:00+11ssw7157999 0.0 1014499
03:00+10sw6138982 0.0 1013387
06:00+9sw49947 0.0 1013236
09:00+11sw47836 0.0 1014228
12:00+16sw44565 0.0 1014496
15:00+18sw344976 0.0 1013694
18:00+15s22605 0.0 101311
21:00+13s33615 0.0 101319